Snowfall_Accumulation
0.6 0.5 0.4 0.5 0.6 0.7 0.5 0.6 1.2 1.2 0.6 0.2 0.3 0.1 0.0 0.0 0.0 0.0 0.0 0.0 0.0 0.0 0.0 0.0 0.0 0.0 0.0 0.0 0.0 0.0 0.0 0.0 0.0 0.0 0.0 0.0 0.0 0.0
0.4 0.5 0.5 0.6 0.5 0.7 0.6 0.6 0.6 1.3 1.4 0.5 0.3 0.3 0.1 0.1 0.0 0.1 0.1 0.1 0.0 0.0 0.1 0.1 0.1 0.1 0.1 0.1 0.1 0.1 0.0 0.0 0.0 0.0 0.0 0.0 0.0 0.0
0.5 0.3 0.4 0.5 0.6 0.6 0.4 0.4 0.4 0.8 1.5 0.6 0.5 0.3 0.3 0.3 0.3 0.1 0.1 0.1 0.1 0.1 0.1 0.1 0.1 0.2 0.2 0.1 0.1 0.1 0.1 0.1 0.1 0.0 0.0 0.1 0.1 0.0
0.5 0.3 0.4 0.5 0.5 0.6 0.9 0.3 0.5 0.5 1.4 1.8 1.0 1.0 0.6 0.5 0.4 0.5 0.5 0.4 0.3 0.1 0.1 0.3 0.3 0.3 0.3 0.3 0.2 0.2 0.2 0.1 0.1 0.1 0.1 0.1 0.1 0.1
0.4 0.3 0.4 0.5 0.6 0.7 0.6 0.4 0.6 0.8 1.4 2.0 1.1 0.8 0.7 0.4 0.4 0.3 0.4 0.4 0.2 0.2 0.1 0.2 0.2 0.3 0.4 0.4 0.4 0.3 0.3 0.2 0.2 0.2 0.2 0.1 0.1 0.1
0.4 0.3 0.3 0.4 0.8 1.2 1.3 1.3 1.6 1.5 1.7 2.2 2.1 1.5 1.4 0.7 0.8 0.8 0.8 0.6 0.4 0.3 0.3 0.2 0.3 0.4 0.3 0.3 0.4 0.4 0.4 0.5 0.6 0.5 0.5 0.4 0.4 0.3
0.6 0.6 0.6 0.7 0.7 1.1 1.7 2.1 1.9 2.5 3.2 3.7 3.5 2.4 1.6 1.1 1.0 1.1 1.1 0.9 0.8 0.3 0.4 0.2 0.3 0.3 0.3 0.3 0.1 0.1 0.3 0.5 0.7 0.8 0.8 0.8 0.5 0.5
1.3 1.1 1.1 1.0 0.8 1.2 1.3 1.5 2.6 4.2 4.9 5.4 4.8 3.4 1.9 1.5 1.2 1.6 2.2 2.7 2.2 0.8 0.6 0.6 0.3 0.3 0.2 0.1 0.1 0.3 0.6 0.9 1.1 1.2 1.0 1.0 0.9 0.8
1.8 1.6 1.3 1.2 1.2 1.1 1.3 1.5 2.0 2.7 3.6 4.3 4.3 2.8 1.9 1.5 2.6 3.8 3.7 4.0 2.9 1.2 1.2 1.2 0.5 0.6 0.3 0.2 0.2 0.3 0.5 0.8 1.0 1.1 1.1 1.1 1.0 0.9
1.3 1.2 1.3 0.9 1.0 1.6 2.5 3.0 2.0 1.6 1.6 1.6 2.0 1.6 1.6 1.7 3.1 5.1 5.0 3.8 1.6 1.1 0.9 2.0 0.9 0.7 0.4 0.2 0.2 0.2 0.4 0.6 0.9 1.1 1.2 1.2 1.2 1.0
1.4 1.1 1.2 1.2 1.5 3.0 4.3 4.6 2.3 1.1 0.8 1.0 1.4 1.4 1.4 1.6 2.0 4.2 5.8 7.1 5.4 1.5 1.0 1.9 1.3 1.1 0.8 0.3 0.3 0.3 0.7 0.6 0.8 1.0 1.3 1.2 1.3 1.2
1.8 1.2 1.3 1.7 2.5 4.3 5.1 4.8 3.5 1.7 1.7 1.5 1.0 0.7 0.7 0.5 1.0 3.1 7.5 12.5 10.0 5.2 0.9 2.3 2.6 3.5 4.8 1.0 1.0 0.8 0.7 0.6 1.0 0.9 0.9 1.0 1.1 1.4
2.5 1.4 1.1 1.9 3.3 4.1 4.1 3.2 3.2 3.7 3.2 2.2 1.4 1.0 0.9 0.9 0.9 1.3 3.6 10.5 14.1 9.3 2.4 6.0 8.0 5.5 8.3 5.0 1.4 0.8 1.0 1.7 1.8 1.3 0.9 1.0 1.2 1.9
3.8 2.0 1.7 2.8 3.4 2.8 2.3 2.2 3.2 3.4 3.0 3.0 2.9 2.2 2.3 2.2 2.2 2.2 2.2 3.5 6.6 8.1 5.1 8.7 14.1 10.6 13.3 10.4 4.7 2.1 1.8 2.6 4.1 3.9 2.5 1.7 1.4 1.4
3.2 2.9 3.1 2.9 2.6 2.0 1.8 2.4 2.6 3.3 4.3 5.4 5.2 4.1 3.0 3.2 3.0 3.6 3.3 3.6 4.4 5.7 6.4 7.6 11.4 12.5 14.5 14.2 9.4 6.7 6.8 4.2 4.1 6.3 6.0 4.0 2.8 1.9
3.4 3.1 2.7 2.2 2.2 2.5 2.4 2.9 3.3 3.8 5.6 6.8 6.0 4.9 4.3 4.9 5.3 6.5 7.9 8.0 8.9 7.5 6.5 6.2 7.6 11.1 12.8 9.8 10.3 9.6 9.3 11.3 8.4 8.1 6.8 5.4 3.8 2.9
5.5 4.3 3.3 3.4 3.1 3.3 3.1 3.0 3.6 4.4 5.4 6.1 6.5 6.7 6.3 7.0 7.9 8.7 10.6 11.6 12.3 10.2 8.3 6.3 5.5 6.3 8.0 9.0 10.0 8.5 9.1 11.1 8.7 7.8 6.5 7.1 5.3 3.2
5.8 6.0 5.0 4.6 4.8 4.3 4.5 4.2 4.4 5.0 5.9 7.6 8.3 8.8 9.5 10.0 10.8 10.8 12.3 13.9 13.2 10.6 8.8 7.0 6.6 6.6 6.1 5.6 6.5 9.0 10.2 11.3 9.2 6.0 6.4 9.1 7.6 4.3
5.5 6.3 5.9 5.7 5.7 5.5 5.8 5.8 6.1 5.8 7.4 9.5 10.5 11.2 11.9 12.2 13.1 13.8 13.8 14.0 12.7 9.9 8.4 7.3 8.9 13.6 15.5 11.0 6.0 7.2 12.2 12.7 9.4 7.8 6.8 7.7 8.4 5.0
4.9 5.8 5.9 6.1 6.2 6.6 6.9 7.7 7.9 8.0 9.0 10.6 11.6 12.2 13.8 15.3 15.5 14.9 14.2 13.9 13.1 10.8 8.2 7.0 8.0 12.8 19.7 17.5 13.6 9.7 7.4 12.0 13.7 12.3 7.5 4.9 4.3 3.3
5.9 5.5 5.6 6.1 7.1 7.8 8.3 9.1 9.8 11.0 11.8 13.6 14.1 14.4 15.2 17.5 17.8 15.0 14.0 12.7 12.2 11.4 10.0 7.2 6.4 8.2 12.6 16.3 16.3 12.6 11.2 7.3 7.9 13.0 13.4 13.0 11.3 9.0
6.8 6.7 6.4 6.5 7.4 8.3 9.2 10.2 11.4 12.5 13.0 14.4 15.0 14.5 15.1 16.6 16.6 14.2 12.5 12.4 11.4 10.9 9.7 7.9 6.8 7.9 12.0 16.5 15.4 11.4 10.9 9.5 6.7 5.3 6.6 10.7 19.1 20.7
8.7 8.6 8.2 7.7 8.5 9.0 10.2 11.1 12.4 13.4 14.0 15.4 16.0 15.3 14.8 14.1 12.5 11.9 11.7 11.9 12.4 11.4 11.1 10.4 9.0 9.0 10.2 11.8 12.7 11.5 9.9 9.2 8.9 9.1 10.1 5.4 5.3 5.8